This is the latest recevied weather packets stored in our database for station/object DK2OO-6. If no packets are shown the sender has not sent any weather packets the latest 10 day(s).
| Time | Temp. | Humidity | Pressure | Rain* | Wind** | Luminosity | Snow |
|---|---|---|---|---|---|---|---|
| 1787992265 | 19.44° C | 78% | 1011.9 hPa | 0 mm | - | - | - |
| 1787991058 | 18.33° C | 82% | 1011.9 hPa | 0 mm | - | - | - |
| 1787988035 | 16.11° C | 85% | 1011.8 hPa | 0 mm | - | - | - |
| 1787987434 | 15.56° C | 86% | 1011.8 hPa | 0 mm | - | - | - |
| 1787986831 | 15° C | 86% | 1011.9 hPa | 0 mm | - | - | - |
| 1787984417 | 13.89° C | 85% | 1011.6 hPa | 0 mm | - | - | - |
| 1787983817 | 13.89° C | 85% | 1011.6 hPa | 0 mm | - | - | - |
| 1787983216 | 13.33° C | 85% | 1011.8 hPa | 0 mm | - | - | - |
| 1787982610 | 13.33° C | 85% | 1011.6 hPa | 0 mm | - | - | - |
| 1787982010 | 12.78° C | 85% | 1011.5 hPa | 0 mm | - | - | - |
| 1787981410 | 12.78° C | 85% | 1011.5 hPa | 0 mm | - | - | - |
| 1787980809 | 12.78° C | 85% | 1011.5 hPa | 0 mm | - | - | - |
| 1787980205 | 12.78° C | 84% | 1011.4 hPa | 0 mm | - | - | - |
| 1787979596 | 12.78° C | 84% | 1011.4 hPa | 0 mm | - | - | - |
| 1787977786 | 13.33° C | 84% | 1011.1 hPa | 0 mm | - | - | - |
| 1787975974 | 13.89° C | 84% | 1011.2 hPa | 0 mm | - | - | - |
| 1787975374 | 13.89° C | 84% | 1011.2 hPa | 0 mm | - | - | - |
| 1787974770 | 13.89° C | 84% | 1011.2 hPa | 0 mm | - | - | - |
| 1787974165 | 13.89° C | 84% | 1011.1 hPa | 0 mm | - | - | - |
| 1787973561 | 14.44° C | 83% | 1010.9 hPa | 0 mm | - | - | - |
| 1787971755 | 13.89° C | 83% | 1011.1 hPa | 0 mm | - | - | - |
| 1787969940 | 14.44° C | 83% | 1010.8 hPa | 0 mm | - | - | - |
| 1787968733 | 14.44° C | 83% | 1010.9 hPa | 0 mm | - | - | - |
| 1787968131 | 15° C | 83% | 1011 hPa | 0 mm | - | - | - |
| 1787965694 | 15° C | 83% | 1011.4 hPa | 0 mm | - | - | - |
* Rain latest hour (hover to see other rain measurements)
** Current wind speed in m/s (hover to see current wind gust speed)